Weather History for CZKD - December, 2012

Change the Weather History Date:

Thursday, December 13, 2012

  Actual Average Record
Temperature  
Mean Temperature -31 °F -  
Max Temperature -16 °F - - ()
Min Temperature -46 °F - - ()
Degree Days  
Heating Degree Days 96    
Moisture  
Dew Point -41 °F    
Average Humidity 66    
Maximum Humidity 77    
Minimum Humidity 40    
Precipitation  
Precipitation 0.09 in - - ()
Sea Level Pressure  
Sea Level Pressure 30.29 in    
Wind  
Wind Speed 1 mph ()    
Max Wind Speed 6 mph    
Max Gust Speed -    
T = Trace of Precipitation, MM = Missing Value Source: Averaged Metar Reports

Daily Weather History Graph

Daily Weather History Graph

Search for Another Location

Airport or City:

Trip Planner

Search our weather history database for the weather conditions in past years. The results will help you decide how hot, cold, wet, or windy it might be!

Date:

Astronomy

Dec. 13, 2012 Rise Set
Actual Time 8:50 AM CST 3:50 PM CST
Civil Twilight 8:03 AM CST 4:37 PM CST
Nautical Twilight 7:13 AM CST 5:27 PM CST
Astronomical Twilight 6:28 AM CST 6:12 PM CST
Moon 8:55 AM CST (12/13) 4:39 PM CST (12/13)
Length of Visible Light 8h 34m
Length of Day
7h 00m
New Moon, 0% of the Moon is Illuminated
Dec 13
New Moon
Dec 19
First Quarter
Dec 28
Full
Jan 4
Last Quarter
Jan 11
New

Hourly Weather History & Observations

Time (CST) Temp. Windchill Dew Point Humidity Pressure Visibility Wind Dir Wind Speed Gust Speed Precip Events Conditions
12:00 AM -44 °F - -51 °F 46% 30.34 in - Calm Calm - -  
12:00 AM -43.6 °F - -51.3 °F 64% 30.34 in - Calm Calm - N/A   Unknown
1:00 AM -44.5 °F - -52.4 °F 64% 30.34 in - Calm Calm - N/A   Unknown
2:00 AM -44.7 °F - -52.6 °F 64% 30.34 in - SSW 2.3 mph - N/A   Unknown
3:00 AM -45.8 °F - -53.9 °F 63% 30.35 in - East 1.2 mph - N/A   Unknown
4:00 AM -46.1 °F - -54.2 °F 63% 30.35 in - East 1.2 mph - N/A   Unknown
5:00 AM -46.5 °F - -54.6 °F 63% 30.34 in - SSE 1.2 mph - N/A   Unknown
6:00 AM -46 °F - -55 °F 40% 30.34 in - ESE 1.2 mph - -  
6:00 AM -46.5 °F - -54.6 °F 63% 30.34 in - ESE 1.2 mph - N/A   Unknown
7:00 AM -45.9 °F - -54.0 °F 63% 30.35 in - Calm Calm - N/A   Unknown
8:00 AM -46.1 °F - -54.2 °F 63% 30.35 in - ESE 2.3 mph - N/A   Unknown
9:00 AM -45.6 °F - -53.7 °F 63% 30.34 in - ESE 2.3 mph - N/A   Unknown
10:00 AM -41.4 °F - -49.2 °F 65% 30.33 in - Calm Calm - N/A   Unknown
11:00 AM -31.7 °F - -38.4 °F 70% 30.31 in - East 2.3 mph - N/A   Unknown
12:00 PM -24 °F - -30 °F 59% 30.30 in - Calm Calm - -  
12:00 PM -24.0 °F - -29.9 °F 74% 30.30 in - Calm Calm - N/A   Unknown
1:00 PM -20.7 °F - -26.5 °F 75% 30.27 in - ENE 1.2 mph - N/A   Unknown
2:00 PM -17.5 °F - -22.7 °F 77% 30.24 in - East 2.3 mph - N/A   Unknown
3:00 PM -19.5 °F -30.1 °F -25.1 °F 76% 30.24 in - NE 3.5 mph - N/A   Unknown
4:00 PM -23.1 °F -36.8 °F -28.8 °F 74% 30.22 in - ENE 4.6 mph - N/A   Unknown
6:00 PM -25 °F - -30 °F 63% 30.21 in - East 4.6 mph - -  
7:00 PM -24.3 °F -40.4 °F -29.9 °F 75% 30.20 in - East 5.8 mph - N/A   Unknown
8:00 PM -23.3 °F -39.2 °F -28.7 °F 76% 30.19 in - East 5.8 mph - N/A   Unknown
9:00 PM -23.4 °F -37.3 °F -28.8 °F 76% 30.18 in - East 4.6 mph - N/A   Unknown
10:00 PM -24.2 °F -35.4 °F -29.7 °F 75% 30.16 in - East 3.5 mph - N/A   Unknown
11:00 PM -24.9 °F -36.3 °F -30.6 °F 74% 30.15 in - ENE 3.5 mph - N/A   Unknown